Pascagoula, MS

11:26 PM CDT on September 19, 2017 (GMT -0500)
Lott International

Weather History for KPQL - January, 2013

Change the Weather History Date:

Friday, January 25, 2013

  Actual Average Record
Temperature  
Mean Temperature 56 °F -  
Max Temperature 70 °F 60 °F 76 °F (1950)
Min Temperature 42 °F 42 °F 10 °F (1963)
Degree Days  
Heating Degree Days 9    
Growing Degree Days 6 (Base 50)    
Moisture  
Dew Point 47 °F    
Average Humidity 89    
Maximum Humidity 100    
Minimum Humidity 57    
Precipitation  
Precipitation 0.00 in - - ()
Sea Level Pressure  
Sea Level Pressure 30.24 in    
Wind  
Wind Speed 1 mph (SSW)    
Max Wind Speed 13 mph    
Max Gust Speed 20 mph    
Visibility 3 miles    
Events Fog    
Averages and records for this station are not official NWS values.
T = Trace of Precipitation, MM = Missing Value Source: NWS Daily Summary

Daily Weather History Graph

Daily Weather History Graph

Search for Another Location

Airport or City:

Trip Planner

Search our weather history database for the weather conditions in past years. The results will help you decide how hot, cold, wet, or windy it might be!

Date:

Astronomy

Jan. 25, 2013 Rise Set
Actual Time 6:48 AM CST 5:24 PM CST
Civil Twilight 6:23 AM CST 5:50 PM CST
Nautical Twilight 5:54 AM CST 6:19 PM CST
Astronomical Twilight 5:25 AM CST 6:47 PM CST
Moon 4:21 PM CST (1/25) 5:27 AM CST (1/25)
Length of Visible Light 11h 27m
Length of Day
10h 36m
Waxing Gibbous, 98% of the Moon is Illuminated
Jan 25
Waxing Gibbous
Jan 26
Full
Feb 3
Last Quarter
Feb 10
New
Feb 17
First Quarter

Hourly Weather History & Observations

Time (CST) Temp. Dew Point Humidity Pressure Visibility Wind Dir Wind Speed Gust Speed Precip Events Conditions
12:08 AM 48.2 °F 46.4 °F 93% 30.27 in 0.5 mi Calm Calm - N/A Fog Fog
12:20 AM 46.4 °F 44.6 °F 93% 30.27 in 2.5 mi Calm Calm - N/A   Clear
12:41 AM 46.4 °F 44.6 °F 93% 30.27 in 6.0 mi Calm Calm - N/A   Clear
12:53 AM 46.9 °F 46.0 °F 97% 30.27 in 1.5 mi Calm Calm - N/A   Clear
1:03 AM 46.4 °F 44.6 °F 93% 30.26 in 0.5 mi Calm Calm - N/A Fog Fog
1:18 AM 46.4 °F 44.6 °F 93% 30.26 in 0.5 mi Calm Calm - N/A Fog Fog
1:25 AM 46.4 °F 44.6 °F 93% 30.26 in 1.0 mi Calm Calm - N/A   Mist
1:40 AM 46.4 °F 44.6 °F 93% 30.26 in 0.2 mi Calm Calm - N/A Fog Fog
1:53 AM 45.0 °F 44.1 °F 97% 30.27 in 0.2 mi Calm Calm - N/A Fog Fog
2:01 AM 44.6 °F 42.8 °F 93% 30.26 in 0.5 mi Calm Calm - N/A Fog Fog
2:17 AM 44.6 °F 42.8 °F 93% 30.25 in 1.2 mi Calm Calm - N/A   Clear
2:22 AM 46.4 °F 44.6 °F 93% 30.25 in 2.5 mi Calm Calm - N/A   Partly Cloudy
2:26 AM 46.4 °F 44.6 °F 93% 30.25 in 1.0 mi Calm Calm - N/A   Mist
2:33 AM 44.6 °F 42.8 °F 93% 30.24 in 0.5 mi Calm Calm - N/A Fog Fog
2:46 AM 44.6 °F 42.8 °F 93% 30.24 in 1.2 mi Calm Calm - N/A   Partly Cloudy
2:53 AM 45.0 °F 43.0 °F 93% 30.25 in 2.0 mi Calm Calm - N/A   Clear
3:07 AM 42.8 °F 41.0 °F 93% 30.24 in 0.8 mi Calm Calm - N/A   Clear
3:15 AM 42.8 °F 42.8 °F 100% 30.24 in 1.5 mi Calm Calm - N/A   Clear
3:18 AM 44.6 °F 42.8 °F 93% 30.24 in 3.0 mi Calm Calm - N/A   Clear
3:53 AM 43.0 °F 42.1 °F 97% 30.24 in 10.0 mi Calm Calm - N/A   Clear
4:30 AM 42.8 °F 42.8 °F 100% 30.24 in 1.5 mi Calm Calm - N/A   Clear
4:35 AM 42.8 °F 41.0 °F 93% 30.24 in 0.5 mi Calm Calm - N/A Fog Fog
4:53 AM 44.1 °F 42.1 °F 93% 30.25 in 1.0 mi Calm Calm - N/A   Clear
5:04 AM 44.6 °F 42.8 °F 93% 30.25 in 0.5 mi Calm Calm - N/A Fog Fog
5:12 AM 42.8 °F 42.8 °F 100% 30.25 in 0.5 mi Calm Calm - N/A Fog Fog
5:22 AM 42.8 °F 42.8 °F 100% 30.25 in 0.2 mi Calm Calm - N/A Fog Fog
5:50 AM 42.8 °F 41.0 °F 93% 30.27 in 0.5 mi Calm Calm - N/A Fog Fog
5:53 AM 42.1 °F 41.0 °F 96% 30.27 in 0.5 mi Calm Calm - N/A Fog Fog
6:04 AM 42.8 °F 41.0 °F 93% 30.27 in 1.0 mi Calm Calm - N/A   Mist
6:12 AM 42.8 °F 41.0 °F 93% 30.27 in 0.5 mi Calm Calm - N/A Fog Fog
6:20 AM 42.8 °F 41.0 °F 93% 30.27 in 0.2 mi Calm Calm - N/A Fog Fog
6:37 AM 42.8 °F 41.0 °F 93% 30.27 in 1.0 mi Calm Calm - N/A   Mist
6:48 AM 42.8 °F 41.0 °F 93% 30.27 in 2.0 mi Calm Calm - N/A   Scattered Clouds
6:53 AM 42.1 °F 41.0 °F 96% 30.28 in 2.5 mi Calm Calm - N/A   Scattered Clouds
7:00 AM 42.8 °F 42.8 °F 100% 30.27 in 2.5 mi Calm Calm - N/A   Mostly Cloudy
7:22 AM 44.6 °F 42.8 °F 93% 30.28 in 6.0 mi Calm Calm - N/A   Partly Cloudy
7:53 AM 48.0 °F 46.9 °F 96% 30.29 in 6.0 mi Calm Calm - N/A   Clear
8:53 AM 60.1 °F 55.9 °F 86% 30.30 in 9.0 mi Calm Calm - N/A   Clear
9:53 AM 66.9 °F 53.1 °F 61% 30.29 in 10.0 mi SSW 10.4 mph - N/A   Clear
10:53 AM 69.1 °F 53.1 °F 57% 30.28 in 10.0 mi SSW 11.5 mph 17.3 mph N/A   Clear
11:53 AM 69.1 °F 54.0 °F 58% 30.25 in 10.0 mi SSW 11.5 mph 16.1 mph N/A   Clear
12:53 PM 69.1 °F 54.0 °F 58% 30.21 in 10.0 mi SSW 12.7 mph 19.6 mph N/A   Clear
1:53 PM 70.0 °F 54.0 °F 57% 30.22 in 10.0 mi SSW 10.4 mph 17.3 mph N/A   Clear
2:53 PM 69.1 °F 54.0 °F 58% 30.20 in 10.0 mi SW 8.1 mph - N/A   Clear
3:53 PM 69.1 °F 54.0 °F 58% 30.19 in 10.0 mi SSW 9.2 mph - N/A   Mostly Cloudy
4:53 PM 66.9 °F 54.0 °F 63% 30.18 in 10.0 mi SSW 6.9 mph - N/A   Mostly Cloudy
5:53 PM 64.0 °F 54.0 °F 70% 30.18 in 10.0 mi South 3.5 mph - N/A   Clear
6:53 PM 63.0 °F 55.0 °F 75% 30.17 in 10.0 mi South 6.9 mph - N/A   Clear
7:53 PM 63.0 °F 55.0 °F 75% 30.17 in 10.0 mi SSW 5.8 mph - N/A   Clear
8:53 PM 61.0 °F 55.0 °F 81% 30.19 in 10.0 mi SW 3.5 mph - N/A   Clear
9:53 PM 53.1 °F 52.0 °F 96% 30.21 in 1.8 mi Calm Calm - N/A   Clear
10:02 PM 53.6 °F 51.8 °F 94% 30.21 in 3.0 mi Calm Calm - N/A   Clear
10:09 PM 53.6 °F 51.8 °F 94% 30.21 in 1.2 mi Calm Calm - N/A   Clear
10:16 PM 51.8 °F 48.2 °F 88% 30.21 in 0.2 mi Calm Calm - N/A Fog Fog
10:33 PM 53.6 °F 51.8 °F 94% 30.21 in 0.2 mi Calm Calm - N/A Fog Fog
10:44 PM 51.8 °F 51.8 °F 100% 30.21 in 0.2 mi Calm Calm - N/A Fog Fog
10:53 PM 50.0 °F 50.0 °F 100% 30.22 in 0.5 mi Calm Calm - N/A Fog Fog
11:03 PM 50.0 °F 50.0 °F 100% 30.21 in 2.0 mi Calm Calm - N/A   Clear
11:10 PM 50.0 °F 48.2 °F 94% 30.21 in 0.8 mi Calm Calm - N/A   Clear
11:20 PM 50.0 °F 48.2 °F 94% 30.21 in 0.2 mi Calm Calm - N/A Fog Fog
11:31 PM 50.0 °F 48.2 °F 94% 30.21 in 1.0 mi Calm Calm - N/A   Clear
11:53 PM 48.9 °F 46.9 °F 93% 30.21 in 5.0 mi Calm Calm - N/A   Clear